Location: ?????
(31.8092°N, 35.2590°E)
Time: 04:20:58
(UTC+00:00)

Cosmos 2360 Rocket - Pass Details

Date: 21 October 2021
Orbit: 832 x 846 km, 71.0° (Epoch: 07 December)

Event Time Altitude Azimuth Distance (km) Brightness Sun altitude
Rises 17:15:41 0° 217° (SW) 3,368 5.7 -29.5°
Reaches altitude 10° 17:18:14 10° 224° (SW) 2,440 5.0 -30.0°
Maximum altitude 17:23:30 41° 294° (WNW) 1,189 3.3 -31.1°
Enters shadow 17:26:47 21° 353° (N) 1,788 4.0 -31.8°
